User: anonymous
Location: Mentone
(34.5413°N, 85.5351°W)
Time: 07:10:01
(UTC-05:00)
Language:

SL-8 R/B - Orbit

View from above orbital plane
View from above orbital plane
View from above satellite
View from above satellite

Ground track
Ground track

The orbit data is extracted from the following two-line orbital elements,

1 33066U 08031G   14111.15670775  .00000763  00000-0  16252-3 0  7618
2 33066 048.4432 101.2563 0008404 283.6786 128.6395 14.68759738313211
Epoch (UTC): 21 April 2014 03:45:39
Eccentricity: 0.0008404
inclination: 48.4432°
perigee height: 659 km
apogee height: 671 km
right ascension of ascending node: 101.2563°
argument of perigee: 283.6786°
revolutions per day: 14.68759738
mean anomaly at epoch: 128.6395°
orbit number at epoch: 31321

The dashed part of the orbit path shows where the satellite is in the earth's shadow,  

DLR